Hebron, NE

8:53 AM CDT on September 23, 2019 (GMT -0500)
Hebron Municipal

Weather History for KHJH - August, 2019

Change the Weather History Date:

Saturday, August 24, 2019

  Actual Average Record
Temperature  
Mean Temperature 69 °F -  
Max Temperature 71 °F 86 °F 105 °F (1955)
Min Temperature 67 °F 63 °F 42 °F (2015)
Cooling Degree Days 4    
Growing Degree Days 19 (Base 50)    
Moisture  
Dew Point 66 °F    
Average Humidity 88    
Maximum Humidity 94    
Minimum Humidity 80    
Precipitation  
Precipitation 0.20 in - - ()
Sea Level Pressure  
Sea Level Pressure 30.04 in    
Wind  
Wind Speed 8 mph (ESE)    
Max Wind Speed 15 mph    
Max Gust Speed 22 mph    
Visibility 10 miles    
Events Rain , Thunderstorm    
Averages and records for this station are not official NWS values.
T = Trace of Precipitation, MM = Missing Value Source: NWS Daily Summary

Daily Weather History Graph

Daily Weather History Graph

Search for Another Location

Airport or City:

Astronomy

Aug. 24, 2019 Rise Set
Actual Time 6:50 AM CDT 8:14 PM CDT
Civil Twilight 6:21 AM CDT 8:42 PM CDT
Nautical Twilight 5:47 AM CDT 9:16 PM CDT
Astronomical Twilight 5:11 AM CDT 9:52 PM CDT
Moon 12:44 AM CDT (8/24) 3:31 PM CDT (8/24)
Length of Visible Light 14h 21m
Length of Day
13h 24m
Last Quarter, 39% of the Moon is Illuminated
Aug 24
Last Quarter
Aug 30
New
Sep 5
First Quarter
Sep 13
Full
Sep 21
Last Quarter

Hourly Weather History & Observations

Time (CDT) Temp. Dew Point Humidity Pressure Visibility Wind Dir Wind Speed Gust Speed Precip Events Conditions
12:15 AM 71.1 °F 64.9 °F 81% 30.08 in 10.0 mi ESE 6.9 mph - N/A   Mostly Cloudy
12:35 AM 70.9 °F 64.8 °F 81% 30.08 in 10.0 mi ESE 5.8 mph - N/A   Mostly Cloudy
12:55 AM 71.1 °F 64.8 °F 80% 30.08 in 10.0 mi ESE 9.2 mph - N/A   Overcast
1:15 AM 70.9 °F 64.9 °F 81% 30.08 in 10.0 mi ESE 6.9 mph - N/A   Overcast
1:35 AM 70.7 °F 64.9 °F 82% 30.08 in 10.0 mi ESE 6.9 mph - N/A   Scattered Clouds
1:55 AM 70.7 °F 65.3 °F 83% 30.09 in 10.0 mi ESE 8.1 mph - N/A   Mostly Cloudy
2:15 AM 70.3 °F 65.3 °F 84% 30.08 in 10.0 mi ESE 6.9 mph - N/A   Mostly Cloudy
2:35 AM 70.0 °F 65.3 °F 85% 30.08 in 10.0 mi ESE 6.9 mph - N/A   Mostly Cloudy
2:55 AM 69.8 °F 65.3 °F 86% 30.08 in 10.0 mi ESE 6.9 mph - N/A   Mostly Cloudy
3:15 AM 69.6 °F 65.3 °F 86% 30.08 in 10.0 mi ESE 8.1 mph - N/A   Overcast
3:35 AM 69.3 °F 65.5 °F 88% 30.09 in 10.0 mi ESE 6.9 mph - N/A   Mostly Cloudy
3:55 AM 69.3 °F 65.5 °F 88% 30.08 in 10.0 mi ESE 5.8 mph - N/A   Overcast
4:15 AM 69.3 °F 65.5 °F 88% 30.08 in 10.0 mi ESE 6.9 mph - N/A   Overcast
4:35 AM 69.1 °F 65.3 °F 88% 30.07 in 10.0 mi ESE 8.1 mph - N/A   Mostly Cloudy
4:55 AM 68.9 °F 65.3 °F 88% 30.08 in 10.0 mi ESE 5.8 mph - N/A   Overcast
5:15 AM 68.9 °F 65.5 °F 89% 30.06 in 10.0 mi ESE 8.1 mph - N/A   Mostly Cloudy
5:35 AM 68.5 °F 65.5 °F 90% 30.07 in 10.0 mi ESE 9.2 mph - N/A   Mostly Cloudy
5:55 AM 68.4 °F 65.3 °F 90% 30.06 in 10.0 mi ESE 10.4 mph - N/A   Mostly Cloudy
6:15 AM 68.2 °F 65.3 °F 90% 30.07 in 10.0 mi SE 4.6 mph - N/A   Mostly Cloudy
6:35 AM 68.2 °F 65.3 °F 90% 30.08 in 10.0 mi SE 5.8 mph - N/A   Mostly Cloudy
6:55 AM 68.0 °F 65.3 °F 91% 30.07 in 10.0 mi ESE 6.9 mph - N/A   Scattered Clouds
7:15 AM 67.5 °F 65.1 °F 92% 30.07 in 10.0 mi ESE 3.5 mph - N/A   Scattered Clouds
7:35 AM 68.0 °F 65.3 °F 91% 30.07 in 10.0 mi ESE 4.6 mph - N/A   Overcast
7:55 AM 68.7 °F 65.5 °F 89% 30.08 in 10.0 mi ESE 5.8 mph - N/A   Overcast
8:15 AM 69.3 °F 65.7 °F 88% 30.08 in 10.0 mi ESE 4.6 mph - N/A   Overcast
8:35 AM 69.3 °F 65.8 °F 89% 30.07 in 10.0 mi ESE 5.8 mph - N/A   Overcast
8:55 AM 69.3 °F 66.0 °F 89% 30.07 in 10.0 mi ESE 6.9 mph - N/A   Light Drizzle
9:15 AM 69.1 °F 66.2 °F 91% 30.07 in 10.0 mi SE 8.1 mph - N/A Rain Light Rain
9:35 AM 69.8 °F 66.2 °F 88% 30.06 in 10.0 mi SE 9.2 mph - N/A   Overcast
9:50 AM 69.8 °F 66.4 °F 89% 30.06 in 10.0 mi ESE 9.2 mph - N/A   Overcast
10:15 AM 70.2 °F 66.4 °F 88% 30.06 in 10.0 mi SE 9.2 mph - N/A   Overcast
10:35 AM 70.0 °F 66.2 °F 88% 30.05 in 10.0 mi SE 9.2 mph - N/A   Overcast
10:55 AM 69.8 °F 66.2 °F 88% 30.05 in 10.0 mi ESE 12.7 mph 17.3 mph N/A   Overcast
11:15 AM 70.0 °F 66.6 °F 89% 30.04 in 10.0 mi ESE 9.2 mph - N/A   Overcast
11:35 AM 70.2 °F 66.4 °F 88% 30.03 in 10.0 mi ESE 15.0 mph 21.9 mph N/A   Overcast
11:55 AM 70.7 °F 66.6 °F 87% 30.03 in 10.0 mi ESE 15.0 mph 19.6 mph N/A   Overcast
12:15 PM 70.7 °F 66.6 °F 87% 30.03 in 10.0 mi ESE 8.1 mph 18.4 mph N/A   Overcast
12:35 PM 70.9 °F 66.6 °F 86% 30.03 in 10.0 mi SE 8.1 mph 20.7 mph N/A   Overcast
12:55 PM 71.2 °F 66.7 °F 86% 30.03 in 10.0 mi SE 12.7 mph - N/A   Overcast
1:15 PM 70.7 °F 66.6 °F 87% 30.03 in 10.0 mi SE 12.7 mph 16.1 mph N/A Thunderstorm Overcast
1:35 PM 70.2 °F 66.4 °F 88% 30.04 in 10.0 mi SE 8.1 mph - N/A   Overcast
1:55 PM 69.8 °F 66.4 °F 89% 30.06 in 10.0 mi SE 6.9 mph - N/A   Light Drizzle
2:15 PM 69.3 °F 66.4 °F 91% 30.07 in 10.0 mi SSE 6.9 mph - N/A Rain , Thunderstorm Light Thunderstorms and Rain
2:35 PM 69.3 °F 66.7 °F 92% 30.05 in 7.0 mi ESE 5.8 mph - N/A Rain Rain
2:55 PM 68.9 °F 66.7 °F 93% 30.05 in 3.0 mi ESE 6.9 mph - 0.06 in Rain Rain
3:35 PM 69.3 °F 67.1 °F 93% 30.03 in 7.0 mi ESE 8.1 mph - N/A   Overcast
3:55 PM 70.0 °F 67.3 °F 91% 30.03 in 10.0 mi SE 6.9 mph - N/A   Overcast
4:15 PM 70.9 °F 67.3 °F 88% 30.02 in 10.0 mi ESE 10.4 mph - N/A   Overcast
4:35 PM 71.1 °F 67.3 °F 88% 30.02 in 10.0 mi SE 10.4 mph - N/A   Overcast
4:55 PM 70.7 °F 66.9 °F 88% 30.01 in 10.0 mi SE 9.2 mph - N/A   Overcast
5:15 PM 70.9 °F 66.7 °F 87% 30.01 in 10.0 mi SE 10.4 mph - N/A   Overcast
5:35 PM 70.5 °F 66.4 °F 87% 30.01 in 10.0 mi ESE 6.9 mph - N/A   Overcast
5:55 PM 70.2 °F 66.2 °F 87% 30.01 in 10.0 mi SE 9.2 mph - N/A   Overcast
6:15 PM 70.5 °F 66.4 °F 87% 30.00 in 10.0 mi SE 9.2 mph - N/A   Overcast
6:35 PM 70.0 °F 66.2 °F 88% 29.99 in 10.0 mi ESE 8.1 mph - N/A   Overcast
6:55 PM 70.2 °F 66.2 °F 87% 29.99 in 10.0 mi ESE 8.1 mph - N/A   Overcast
7:15 PM 69.8 °F 66.2 °F 88% 30.00 in 10.0 mi ESE 5.8 mph - N/A   Overcast
7:30 PM 69.8 °F 66.0 °F 88% 29.99 in 10.0 mi ESE 9.2 mph - N/A   Overcast
7:55 PM 69.4 °F 65.8 °F 88% 30.00 in 10.0 mi SE 10.4 mph - N/A Thunderstorm Overcast
8:15 PM 69.4 °F 65.8 °F 88% 30.01 in 10.0 mi SE 6.9 mph - N/A Thunderstorm Overcast
8:35 PM 69.3 °F 65.5 °F 88% 30.03 in 10.0 mi SSE 6.9 mph - N/A Thunderstorm Overcast
8:55 PM 68.5 °F 66.0 °F 92% 30.03 in 7.0 mi SE 4.6 mph - 0.03 in Rain , Thunderstorm Light Thunderstorms and Rain
9:15 PM 68.2 °F 66.2 °F 93% 30.01 in 5.0 mi SE 6.9 mph - 0.06 in Rain , Thunderstorm Heavy Thunderstorms and Rain
9:35 PM 68.0 °F 66.2 °F 94% 29.99 in 7.0 mi ESE 9.2 mph - 0.09 in Rain Light Rain
10:15 PM 67.5 °F 65.7 °F 94% 29.98 in 7.0 mi ESE 5.8 mph - 0.01 in Rain Light Rain
10:35 PM 67.8 °F 66.0 °F 94% 30.00 in 7.0 mi WSW 3.5 mph - 0.01 in   Light Drizzle
10:55 PM 68.0 °F 66.2 °F 94% 29.99 in 7.0 mi Calm Calm - 0.02 in   Overcast
11:15 PM 68.0 °F 66.2 °F 94% 29.98 in 7.0 mi ESE 4.6 mph - N/A   Overcast
11:55 PM 67.8 °F 65.5 °F 92% 29.98 in 10.0 mi ESE 8.1 mph - N/A Rain Light Rain